Greenville, AL

7:14 PM CST on February 07, 2016 (GMT -0600)
Greenville Municipal

Weather History for KPRN - November, 2013

Change the Weather History Date:

Monday, November 4, 2013

  Actual Average Record
Temperature  
Mean Temperature 58 °F -  
Max Temperature 72 °F 73 °F 89 °F (1968)
Min Temperature 45 °F 47 °F 25 °F (1991)
Degree Days  
Heating Degree Days 6    
Growing Degree Days 8 (Base 50)    
Moisture  
Dew Point 44 °F    
Average Humidity 60    
Maximum Humidity 80    
Minimum Humidity 36    
Precipitation  
Precipitation 0.00 in - - ()
Sea Level Pressure  
Sea Level Pressure 30.27 in    
Wind  
Wind Speed 5 mph (East)    
Max Wind Speed 10 mph    
Max Gust Speed 17 mph    
Visibility 10 miles    
Events      
Averages and records for this station are not official NWS values.
T = Trace of Precipitation, MM = Missing Value Source: NWS Daily Summary

Daily Weather History Graph

Daily Weather History Graph

Search for Another Location

Airport or City:

Trip Planner

Search our weather history database for the weather conditions in past years. The results will help you decide how hot, cold, wet, or windy it might be!

Date:

Astronomy

Nov. 04, 2013 Rise Set
Actual Time 6:05 AM CST 4:54 PM CST
Civil Twilight 5:40 AM CST 5:19 PM CST
Nautical Twilight 5:11 AM CST 5:48 PM CST
Astronomical Twilight 4:42 AM CST 6:16 PM CST
Moon 7:11 AM CST (11/4) 6:02 PM CST (11/4)
Length of Visible Light 11h 39m
Length of Day
10h 48m
New Moon, 2% of the Moon is Illuminated
Nov 4
New Moon
Nov 9
First Quarter
Nov 17
Full
Nov 25
Last Quarter
Dec 2
New

Hourly Weather History & Observations

Time (CST) Temp. Windchill Dew Point Humidity Pressure Visibility Wind Dir Wind Speed Gust Speed Precip Events Conditions
12:56 AM 46.9 °F - 39.9 °F 77% 30.23 in 10.0 mi Calm Calm - N/A   Clear
1:56 AM 45.0 °F 43.5 °F 39.0 °F 80% 30.23 in 10.0 mi East 3.5 mph - N/A   Clear
2:56 AM 46.0 °F 43.9 °F 39.9 °F 79% 30.23 in 10.0 mi East 4.6 mph - N/A   Clear
3:56 AM 46.9 °F - 39.9 °F 77% 30.23 in 10.0 mi East 6.9 mph - N/A   Clear
5:56 AM 45.0 °F 43.5 °F 39.0 °F 80% 30.27 in 10.0 mi ENE 3.5 mph - N/A   Clear
6:56 AM 46.9 °F - 39.9 °F 77% 30.29 in 10.0 mi ENE 4.6 mph - N/A   Clear
7:56 AM 54.0 °F - 42.1 °F 64% 30.30 in 10.0 mi East 9.2 mph - N/A   Clear
8:56 AM 60.1 °F - 41.0 °F 49% 30.31 in 10.0 mi East 9.2 mph - N/A   Clear
9:56 AM 64.0 °F - 39.9 °F 41% 30.33 in 10.0 mi East 6.9 mph 17.3 mph N/A   Clear
10:56 AM 68.0 °F - 41.0 °F 37% 30.32 in 10.0 mi ENE 6.9 mph - N/A   Clear
11:56 AM 70.0 °F - 42.1 °F 36% 30.29 in 10.0 mi Variable 4.6 mph - N/A   Clear
12:56 PM 72.0 °F - 45.0 °F 38% 30.26 in 10.0 mi Variable 4.6 mph - N/A   Clear
1:56 PM 72.0 °F - 45.0 °F 38% 30.25 in 10.0 mi ENE 8.1 mph - N/A   Clear
2:56 PM 71.1 °F - 46.0 °F 41% 30.25 in 10.0 mi ESE 10.4 mph - N/A   Clear
3:56 PM 69.1 °F - 46.9 °F 45% 30.25 in 10.0 mi ESE 8.1 mph - N/A   Clear
4:56 PM 64.9 °F - 50.0 °F 58% 30.25 in 10.0 mi East 3.5 mph - N/A   Clear
5:56 PM 61.0 °F - 48.9 °F 64% 30.27 in 10.0 mi East 5.8 mph - N/A   Clear
6:56 PM 60.1 °F - 48.0 °F 64% 30.28 in 10.0 mi East 8.1 mph - N/A   Clear
7:56 PM 57.9 °F - 46.9 °F 67% 30.29 in 10.0 mi East 5.8 mph - N/A   Clear
8:56 PM 57.0 °F - 46.9 °F 69% 30.30 in 10.0 mi East 5.8 mph - N/A   Clear
9:56 PM 57.0 °F - 46.0 °F 67% 30.29 in 10.0 mi East 10.4 mph - N/A   Clear
10:56 PM 55.9 °F - 45.0 °F 67% 30.29 in 10.0 mi East 8.1 mph - N/A   Clear
11:56 PM 55.0 °F - 44.1 °F 67% 30.29 in 10.0 mi East 8.1 mph - N/A   Partly Cloudy